[[{"header":{"parameterUnit":"m.s-1","parameterCategory":2,"la1":30.2991,"la2":30.254,"lo1":-89.0895,"lo2":-89.0444,"dy":0.0017,"dx":0.0017,"nx":28,"ny":28,"refTime":"2024-06-22T03:00:00:Z","depth":"0","parameterNumber":2,"parameterNumberName":"U-component_of_CURRENTS"},"data":[0,0,0,0,0,0,0,0,0,0,0,0,0,0,0,0,0,0,0,0,0,0,0,0,0,0,0,0,0,0,0,0,0,0,0,0,0,0,0,0,0,0,0,0,0,0,0,0,0,0,0,0,0,0,0,0,0,0,-0.0492,-0.0492,0,-0.0539,-0.054,-0.054,-0.054,-0.054,-0.0539,-0.0538,-0.0554,-0.0555,-0.0556,0,0,0,0,0,0,0,0,0,0,0,0,0,-0.0493,-0.0492,-0.0492,-0.0492,-0.0493,-0.0539,-0.054,-0.0541,-0.054,-0.0539,-0.0539,-0.0538,-0.0554,-0.0555,-0.0556,0,0,0,0,0,0,0,0,0,0,0,0,0,-0.0512,-0.0492,-0.0492,-0.0498,-0.0499,-0.0539,-0.054,-0.0541,-0.0541,-0.0539,-0.0538,-0.0537,-0.0553,-0.0555,-0.0557,-0.0588,0,0,-0.0562,-0.0562,0,0,0,0,0,0,0,0,-0.0511,-0.0512,-0.0496,-0.0497,-0.0498,-0.0532,-0.0546,-0.0555,-0.0541,-0.0526,-0.0538,-0.0537,-0.0544,-0.0546,-0.0559,-0.0589,-0.0589,-0.0562,-0.0563,-0.0563,-0.0564,0,0,0,0,0,0,0,-0.051,-0.0511,-0.0512,-0.0497,-0.0498,-0.0529,-0.053,-0.0548,-0.054,-0.0527,-0.0527,-0.0531,-0.0544,-0.0558,-0.056,-0.059,-0.0562,-0.0563,-0.0564,-0.0565,-0.0672,-0.0674,0,0,0,0,0,0,-0.0498,-0.0509,-0.051,-0.0513,-0.0501,-0.053,-0.0531,-0.0523,-0.0541,-0.0543,-0.0532,-0.0531,-0.0556,-0.0558,-0.056,-0.0607,-0.0563,-0.0565,-0.0566,-0.067,-0.0673,-0.0675,0,0,0,0,0,0,-0.0498,-0.0497,-0.0508,-0.0512,-0.0515,-0.053,-0.0522,-0.0524,-0.0538,-0.0545,-0.0546,-0.0542,-0.0555,-0.0558,-0.0591,-0.0607,-0.0566,-0.0567,-0.0668,-0.0671,-0.0674,-0.0694,0,0,0,0,0,0,-0.0497,-0.0497,-0.0492,-0.0511,-0.0515,-0.0535,-0.0523,-0.0526,-0.0542,-0.0541,-0.0554,-0.0555,-0.0554,-0.0589,-0.0593,-0.0608,-0.0568,-0.0666,-0.067,-0.0673,-0.0691,-0.0697,-0.0703,0,0,0,0,0,-0.0497,-0.0493,-0.0491,-0.0492,-0.0506,-0.0536,-0.0542,-0.055,-0.0543,-0.0557,-0.0572,-0.0554,-0.0614,-0.0592,-0.0596,-0.0612,-0.0664,-0.0668,-0.0673,-0.0688,-0.0696,-0.0702,0,0,0,0,0,0,-0.0493,-0.0493,-0.0492,-0.0487,-0.0512,-0.0536,-0.0546,-0.0555,-0.0579,-0.0576,-0.0579,-0.0583,-0.0615,-0.0621,-0.0597,-0.0657,-0.0636,-0.0641,-0.0647,-0.0654,-0.066,-0.0657,-0.057,0,0,0,0,0,-0.0489,-0.0482,-0.05,-0.0498,-0.0509,-0.053,-0.0544,-0.0552,-0.0574,-0.0583,-0.0595,-0.0614,-0.0638,-0.0651,-0.067,-0.0706,-0.0713,-0.0722,-0.0727,-0.0732,-0.0736,-0.0769,-0.0778,-0.0689,-0.0689,-0.0689,0,0,-0.0486,-0.0486,-0.0482,-0.0497,-0.0513,-0.0544,-0.0536,-0.0558,-0.0586,-0.0582,-0.062,-0.0632,-0.0653,-0.0691,-0.0706,-0.0696,-0.0763,-0.0737,-0.0741,-0.0742,-0.0775,-0.0783,-0.079,-0.0692,-0.0691,-0.0691,0,0,-0.049,-0.0479,-0.0483,-0.0508,-0.0533,-0.0552,-0.056,-0.059,-0.0603,-0.0646,-0.0649,-0.0678,-0.0714,-0.0735,-0.075,-0.0805,-0.079,-0.0807,-0.0835,-0.0867,-0.0874,-0.088,-0.0899,-0.0907,-0.0812,-0.0812,-0.0812,0,-0.0488,-0.0497,-0.0494,-0.052,-0.0543,-0.0557,-0.059,-0.0612,-0.0652,-0.0668,-0.066,-0.0725,-0.0738,-0.0789,-0.0807,-0.0816,-0.0825,-0.08,-0.0872,-0.0878,-0.0884,-0.0903,-0.0911,-0.0814,-0.0813,-0.0813,-0.0813,0,-0.0505,-0.0523,-0.0532,-0.0563,-0.0589,-0.0618,-0.065,-0.0674,-0.0689,-0.0711,-0.0756,-0.0782,-0.0816,-0.0829,-0.0834,-0.0887,-0.0877,-0.087,-0.0847,-0.0894,-0.0911,-0.0919,-0.0816,-0.0815,-0.0815,-0.0814,0,0,-0.0478,-0.0532,-0.0538,-0.0568,-0.0615,-0.0641,-0.0682,-0.0727,-0.075,-0.0785,-0.0821,-0.087,-0.0869,-0.0888,-0.0896,-0.0929,-0.0979,-0.0918,-0.0919,-0.0923,-0.1042,-0.1062,-0.1072,-0.0979,-0.0981,-0.0982,-0.1036,0,-0.0498,-0.0553,-0.0573,-0.0636,-0.0673,-0.07,-0.0737,-0.0775,-0.08,-0.0836,-0.0864,-0.0897,-0.0895,-0.0906,-0.0942,-0.0965,-0.1002,-0.0965,-0.1008,-0.1009,-0.1009,-0.1083,-0.1017,-0.1061,-0.1043,-0.1045,-0.1046,0,-0.0512,-0.0552,-0.0613,-0.0679,-0.0694,-0.0731,-0.0784,-0.0817,-0.0862,-0.0876,-0.091,-0.0923,-0.0974,-0.0962,-0.1033,-0.1005,-0.1031,-0.105,-0.1053,-0.1069,-0.1045,-0.1014,-0.1077,-0.0965,-0.1058,-0.1057,-0.1056,0,-0.0503,-0.0578,-0.0628,-0.0655,-0.0728,-0.0754,-0.0785,-0.083,-0.0852,-0.0897,-0.0912,-0.0965,-0.0987,-0.1032,-0.1068,-0.1051,-0.1141,-0.1122,-0.1167,-0.1168,-0.1121,-0.1115,-0.107,-0.1186,-0.1186,-0.1185,-0.1185,0,-0.0517,-0.0557,-0.063,-0.0661,-0.0715,-0.0756,-0.0801,-0.083,-0.0868,-0.0898,-0.0927,-0.0956,-0.1005,-0.1054,-0.1087,-0.1156,-0.1158,-0.1192,-0.1196,-0.1128,-0.1122,-0.1031,-0.1036,-0.1187,-0.1187,-0.1187,-0.1186,0,-0.0502,-0.0549,-0.0612,-0.0691,-0.0715,-0.075,-0.0807,-0.0835,-0.0861,-0.09,-0.0912,-0.0958,-0.1019,-0.1073,-0.1148,-0.1181,-0.122,-0.1266,-0.118,-0.1174,-0.1118,-0.113,-0.1225,-0.119,-0.133,-0.1331,-0.1332,0,-0.0499,-0.0531,-0.0623,-0.066,-0.0699,-0.0752,-0.0788,-0.0829,-0.0853,-0.0901,-0.092,-0.0982,-0.1021,-0.1136,-0.1208,-0.1286,-0.1249,-0.1278,-0.125,-0.1127,-0.1142,-0.1173,-0.1136,-0.1188,-0.1188,-0.1187,-0.1187,0,-0.0498,-0.0527,-0.058,-0.0656,-0.0708,-0.0761,-0.081,-0.0823,-0.0865,-0.0891,-0.0926,-0.0957,-0.106,-0.1119,-0.1228,-0.126,-0.1221,-0.1276,-0.1166,-0.1061,-0.1076,-0.1037,-0.1128,-0.1184,-0.1184,-0.1185,-0.1185,-0.1185,-0.0487,-0.0522,-0.059,-0.0659,-0.0715,-0.0764,-0.0788,-0.0824,-0.0852,-0.0887,-0.0929,-0.0993,-0.1043,-0.1185,-0.1165,-0.1119,-0.1236,-0.1102,-0.1136,-0.1183,-0.1131,-0.1226,-0.1279,-0.128,-0.1281,-0.1281,-0.1282,0,-0.0484,-0.0528,-0.0591,-0.0675,-0.0729,-0.0761,-0.0802,-0.0807,-0.0824,-0.0897,-0.0933,-0.1049,-0.1038,-0.1031,-0.1027,-0.0974,-0.0929,-0.094,-0.0908,-0.0884,-0.0951,-0.0916,-0.0871,-0.0871,-0.0871,-0.0871,-0.0871,-0.0871,-0.0487,-0.054,-0.0581,-0.0671,-0.0724,-0.0773,-0.0787,-0.0781,-0.082,-0.0891,-0.0998,-0.1092,-0.109,-0.1037,-0.0851,-0.0786,-0.0714,-0.078,-0.0777,-0.0724,-0.0738,-0.0751,-0.071,-0.0623,-0.0623,-0.0628,-0.0628,-0.0628]},{"header":{"parameterUnit":"m.s-1","parameterCategory":2,"la1":30.2991,"la2":30.254,"lo1":-89.0895,"lo2":-89.0444,"dy":0.0017,"dx":0.0017,"nx":28,"ny":28,"refTime":"2024-06-22T03:00:00:Z","depth":"0","parameterNumber":3,"parameterNumberName":"V-component_of_CURRENTS"},"data":[0,0,0,0,0,0,0,0,0,0,0,0,0,0,0,0,0,0,0,0,0,0,0,0,0,0,0,0,0,0,0,0,0,0,0,0,0,0,0,0,0,0,0,0,0,0,0,0,0,0,0,0,0,0,0,0,0,0,-0.1852,-0.1852,0,-0.1909,-0.1909,-0.191,-0.1883,-0.1882,-0.1881,-0.188,-0.1853,-0.1853,-0.1854,0,0,0,0,0,0,0,0,0,0,0,0,0,-0.1723,-0.1725,-0.1851,-0.1852,-0.1854,-0.1909,-0.1909,-0.191,-0.1883,-0.1882,-0.1881,-0.1879,-0.1853,-0.1853,-0.1854,0,0,0,0,0,0,0,0,0,0,0,0,0,-0.1776,-0.1726,-0.1851,-0.1849,-0.185,-0.1909,-0.191,-0.191,-0.1884,-0.1882,-0.188,-0.1879,-0.1853,-0.1853,-0.1854,-0.1892,0,0,-0.1855,-0.1856,0,0,0,0,0,0,0,0,-0.1773,-0.1781,-0.1849,-0.1849,-0.185,-0.189,-0.1854,-0.1901,-0.1884,-0.1868,-0.188,-0.1878,-0.1861,-0.1861,-0.1872,-0.1891,-0.189,-0.1855,-0.1856,-0.1856,-0.1856,0,0,0,0,0,0,0,-0.177,-0.1778,-0.1871,-0.185,-0.1851,-0.1847,-0.1852,-0.1863,-0.1869,-0.1869,-0.1868,-0.188,-0.186,-0.1872,-0.1871,-0.1889,-0.1855,-0.1856,-0.1856,-0.1856,-0.1883,-0.1884,0,0,0,0,0,0,-0.1771,-0.1775,-0.1869,-0.1873,-0.181,-0.1851,-0.1857,-0.1876,-0.1871,-0.187,-0.1881,-0.1878,-0.1872,-0.187,-0.187,-0.1888,-0.1856,-0.1856,-0.1857,-0.1883,-0.1883,-0.1884,0,0,0,0,0,0,-0.1768,-0.1779,-0.1867,-0.1827,-0.1838,-0.1855,-0.1877,-0.1879,-0.1886,-0.1882,-0.1878,-0.1887,-0.187,-0.1869,-0.1881,-0.1887,-0.1857,-0.1857,-0.1882,-0.1883,-0.1883,-0.1941,0,0,0,0,0,0,-0.1764,-0.1778,-0.1797,-0.1828,-0.1841,-0.1901,-0.188,-0.1881,-0.1897,-0.1894,-0.1886,-0.1882,-0.1869,-0.1881,-0.1882,-0.1888,-0.1858,-0.1882,-0.1883,-0.1883,-0.1939,-0.1944,-0.1948,0,0,0,0,0,-0.176,-0.1801,-0.1798,-0.181,-0.1866,-0.1902,-0.1908,-0.1912,-0.1899,-0.191,-0.1905,-0.1882,-0.1885,-0.1883,-0.1884,-0.1889,-0.1882,-0.1882,-0.1883,-0.1937,-0.1943,-0.1948,0,0,0,0,0,0,-0.1772,-0.1803,-0.1801,-0.1853,-0.1872,-0.1898,-0.1922,-0.1918,-0.1926,-0.1921,-0.1903,-0.19,-0.1911,-0.1895,-0.1893,-0.1896,-0.1873,-0.1874,-0.1913,-0.1919,-0.1923,-0.1915,-0.1858,0,0,0,0,0,-0.1782,-0.1811,-0.1835,-0.1879,-0.1889,-0.1903,-0.1921,-0.1921,-0.1933,-0.1934,-0.1929,-0.1919,-0.1919,-0.1914,-0.1915,-0.1928,-0.1908,-0.1926,-0.193,-0.1934,-0.1927,-0.1912,-0.1914,-0.1886,-0.1886,-0.1886,0,0,-0.1802,-0.1824,-0.1843,-0.1882,-0.1899,-0.192,-0.1909,-0.1941,-0.1953,-0.1932,-0.1949,-0.1944,-0.1928,-0.194,-0.1941,-0.1925,-0.1935,-0.1936,-0.1939,-0.1929,-0.1913,-0.1916,-0.1918,-0.1887,-0.1887,-0.1887,0,0,-0.1851,-0.1873,-0.1903,-0.1916,-0.1942,-0.1948,-0.1955,-0.1977,-0.1978,-0.2,-0.1983,-0.1984,-0.1985,-0.1976,-0.197,-0.2,-0.1965,-0.1991,-0.2003,-0.1989,-0.1992,-0.1993,-0.1986,-0.1986,-0.1986,-0.1986,-0.1986,0,-0.187,-0.1908,-0.1919,-0.1944,-0.1956,-0.1958,-0.198,-0.1993,-0.2014,-0.2017,-0.2006,-0.2008,-0.2001,-0.2005,-0.201,-0.2011,-0.1995,-0.1988,-0.1996,-0.1997,-0.1997,-0.1989,-0.1989,-0.1989,-0.1989,-0.1988,-0.1988,0,-0.1929,-0.1952,-0.1975,-0.1994,-0.201,-0.2036,-0.2043,-0.2058,-0.2055,-0.2058,-0.2065,-0.2061,-0.2051,-0.2051,-0.2041,-0.204,-0.2025,-0.2012,-0.1984,-0.2004,-0.1994,-0.1993,-0.1993,-0.1992,-0.1991,-0.199,0,0,-0.1982,-0.2007,-0.2012,-0.2012,-0.2033,-0.2049,-0.2074,-0.2089,-0.2096,-0.2104,-0.2111,-0.2112,-0.2097,-0.2088,-0.2074,-0.206,-0.2063,-0.2035,-0.2033,-0.2031,-0.2032,-0.1947,-0.1937,-0.2047,-0.2046,-0.2046,-0.2029,0,-0.2017,-0.2055,-0.206,-0.2085,-0.2098,-0.2097,-0.2114,-0.2126,-0.213,-0.214,-0.213,-0.213,-0.2114,-0.2106,-0.2094,-0.207,-0.2059,-0.2069,-0.2008,-0.2007,-0.1932,-0.1932,-0.1793,-0.1758,-0.2027,-0.2027,-0.2027,0,-0.2064,-0.2077,-0.2105,-0.2105,-0.2111,-0.2124,-0.2134,-0.215,-0.2163,-0.2164,-0.2161,-0.2152,-0.2143,-0.2122,-0.2087,-0.2091,-0.2064,-0.2043,-0.2041,-0.1936,-0.1918,-0.1778,-0.1745,-0.1477,-0.2024,-0.2024,-0.2024,0,-0.208,-0.2104,-0.2119,-0.2124,-0.2133,-0.2139,-0.2144,-0.2157,-0.2164,-0.2175,-0.2176,-0.2166,-0.2153,-0.2123,-0.2084,-0.2081,-0.2041,-0.2033,-0.1935,-0.193,-0.1783,-0.1764,-0.1482,-0.2005,-0.2005,-0.2005,-0.2005,0,-0.2111,-0.212,-0.2124,-0.2131,-0.2143,-0.2144,-0.2155,-0.2164,-0.2172,-0.2183,-0.2181,-0.2185,-0.2148,-0.2125,-0.2092,-0.2003,-0.2046,-0.1929,-0.1912,-0.18,-0.1784,-0.1522,-0.1423,-0.2004,-0.2004,-0.2004,-0.2004,0,-0.2128,-0.2134,-0.2144,-0.2148,-0.2151,-0.2157,-0.216,-0.217,-0.2172,-0.2188,-0.219,-0.2189,-0.2161,-0.2125,-0.2076,-0.1995,-0.1781,-0.1899,-0.1772,-0.1739,-0.137,-0.1283,-0.109,-0.0984,-0.1771,-0.1769,-0.1767,0,-0.2142,-0.215,-0.2154,-0.2159,-0.216,-0.2165,-0.2175,-0.2176,-0.2188,-0.2194,-0.2208,-0.2185,-0.2175,-0.2065,-0.1942,-0.1848,-0.1699,-0.1618,-0.1577,-0.1307,-0.1199,-0.1199,-0.1125,-0.1421,-0.1416,-0.1412,-0.1409,0,-0.2159,-0.2157,-0.2163,-0.2171,-0.2178,-0.2188,-0.22,-0.2209,-0.2215,-0.223,-0.2253,-0.224,-0.2115,-0.1953,-0.178,-0.1675,-0.1378,-0.1534,-0.1276,-0.0904,-0.0864,-0.0768,-0.1489,-0.1375,-0.1379,-0.1381,-0.1383,-0.1384,-0.2165,-0.2172,-0.2175,-0.2181,-0.2192,-0.221,-0.2219,-0.2244,-0.2267,-0.2289,-0.2293,-0.2269,-0.1945,-0.1696,-0.1522,-0.1005,-0.1161,-0.0826,-0.0751,-0.0785,-0.063,-0.1275,-0.1126,-0.1128,-0.1129,-0.1131,-0.1132,0,-0.2175,-0.2178,-0.2186,-0.2195,-0.2205,-0.2208,-0.2234,-0.2249,-0.2288,-0.2319,-0.2343,-0.2061,-0.165,-0.1258,-0.0609,-0.0257,-0.0213,-0.0063,0.0018,0.0044,-0.0512,-0.0434,-0.0099,-0.0099,-0.0099,-0.01,-0.01,-0.01,-0.218,-0.2186,-0.2189,-0.2201,-0.2208,-0.2222,-0.2235,-0.2272,-0.2299,-0.2261,-0.2162,-0.2086,-0.1347,-0.0316,0.0434,0.0524,0.074,0.0735,0.0776,0.049,0.0425,0.0364,0.0466,0.0984,0.0985,0.133,0.1334,0.1338]}],[{"header":{"parameterUnit":"m.s-1","parameterCategory":2,"la1":30.2991,"la2":30.254,"lo1":-89.0895,"lo2":-89.0444,"dy":0.0017,"dx":0.0017,"nx":28,"ny":28,"refTime":"2024-06-22T03:00:00:Z","depth":"2","parameterNumber":2,"parameterNumberName":"U-component_of_CURRENTS"},"data":[0,0,0,0,0,0,0,0,0,0,0,0,0,0,0,0,0,0,0,0,0,0,0,0,0,0,0,0,0,0,0,0,0,0,0,0,0,0,0,0,0,0,0,0,0,0,0,0,0,0,0,0,0,0,0,0,0,0,-0.1058,-0.1058,0,-0.1062,-0.1062,-0.1062,-0.1078,-0.1078,-0.1079,-0.1079,-0.1053,-0.1052,-0.105,0,0,0,0,0,0,0,0,0,0,0,0,0,-0.1036,-0.1036,-0.1058,-0.1058,-0.1058,-0.1062,-0.1062,-0.1062,-0.1077,-0.1078,-0.1079,-0.1079,-0.1053,-0.1052,-0.105,0,0,0,0,0,0,0,0,0,0,0,0,0,-0.1041,-0.1036,-0.1058,-0.1068,-0.1069,-0.1062,-0.1062,-0.1062,-0.1077,-0.1078,-0.1079,-0.108,-0.1054,-0.1052,-0.105,-0.1021,0,0,-0.1044,-0.1044,0,0,0,0,0,0,0,0,-0.1041,-0.1042,-0.1066,-0.1068,-0.1069,-0.1072,-0.1045,-0.1047,-0.1077,-0.1072,-0.1079,-0.108,-0.1057,-0.1055,-0.1051,-0.102,-0.1019,-0.1044,-0.1043,-0.1042,-0.1042,0,0,0,0,0,0,0,-0.104,-0.1041,-0.1057,-0.1067,-0.1068,-0.1064,-0.1065,-0.1045,-0.1057,-0.1072,-0.1074,-0.1078,-0.1058,-0.1053,-0.1051,-0.1019,-0.1044,-0.1043,-0.1042,-0.1041,-0.0929,-0.0928,0,0,0,0,0,0,-0.1045,-0.1041,-0.1057,-0.1057,-0.1059,-0.1064,-0.1065,-0.1068,-0.1058,-0.1059,-0.1077,-0.1079,-0.1056,-0.1053,-0.105,-0.1023,-0.1042,-0.1041,-0.104,-0.0931,-0.0929,-0.0927,0,0,0,0,0,0,-0.1044,-0.1046,-0.1057,-0.1051,-0.1053,-0.1063,-0.1066,-0.1068,-0.1066,-0.1063,-0.1062,-0.1074,-0.1056,-0.1052,-0.1013,-0.1022,-0.104,-0.1038,-0.0933,-0.0931,-0.0928,-0.0964,0,0,0,0,0,0,-0.1044,-0.1046,-0.1039,-0.1051,-0.1053,-0.1044,-0.1066,-0.1068,-0.1068,-0.107,-0.1059,-0.1058,-0.1057,-0.1016,-0.1012,-0.102,-0.1037,-0.0936,-0.0932,-0.0929,-0.0965,-0.0963,-0.0961,0,0,0,0,0,-0.1043,-0.1033,-0.1039,-0.1041,-0.1047,-0.1044,-0.1043,-0.1052,-0.1067,-0.1055,-0.1041,-0.1058,-0.0991,-0.1013,-0.1008,-0.1016,-0.0937,-0.0933,-0.0929,-0.0966,-0.0963,-0.0961,0,0,0,0,0,0,-0.1015,-0.1035,-0.1041,-0.1036,-0.1037,-0.1047,-0.1036,-0.1049,-0.103,-0.1032,-0.1032,-0.1027,-0.0997,-0.0984,-0.1008,-0.0966,-0.0968,-0.0963,-0.0998,-0.0995,-0.0993,-0.1005,-0.1035,0,0,0,0,0,-0.1008,-0.1004,-0.1021,-0.101,-0.1013,-0.1024,-0.1022,-0.1033,-0.1026,-0.102,-0.1015,-0.0997,-0.0974,-0.0968,-0.0941,-0.0918,-0.0947,-0.0915,-0.0913,-0.0912,-0.0913,-0.0958,-0.0962,-0.0913,-0.0913,-0.0914,0,0,-0.0991,-0.1001,-0.0997,-0.1003,-0.1004,-0.1,-0.1024,-0.1021,-0.1017,-0.1017,-0.0997,-0.0985,-0.096,-0.0936,-0.0923,-0.0932,-0.0941,-0.0907,-0.0906,-0.0909,-0.0955,-0.096,-0.0965,-0.0911,-0.0911,-0.0912,0,0,-0.0958,-0.0967,-0.0956,-0.096,-0.0968,-0.0975,-0.0976,-0.0987,-0.099,-0.0967,-0.0969,-0.0959,-0.0919,-0.0919,-0.091,-0.0873,-0.0922,-0.0861,-0.0876,-0.092,-0.0926,-0.0931,-0.0995,-0.1006,-0.087,-0.087,-0.087,0,-0.0933,-0.0934,-0.0948,-0.0944,-0.0945,-0.0965,-0.0957,-0.0958,-0.0954,-0.0961,-0.0957,-0.0933,-0.0914,-0.0911,-0.0895,-0.0876,-0.0913,-0.09,-0.0924,-0.093,-0.0935,-0.0999,-0.1011,-0.0871,-0.0871,-0.0871,-0.0871,0,-0.0901,-0.0903,-0.0895,-0.0899,-0.0897,-0.0893,-0.0908,-0.0909,-0.0918,-0.0932,-0.093,-0.0914,-0.0906,-0.0901,-0.0884,-0.0909,-0.093,-0.0918,-0.0948,-0.0944,-0.1009,-0.1021,-0.0873,-0.0872,-0.0872,-0.0872,0,0,-0.0837,-0.0868,-0.0863,-0.0871,-0.0881,-0.0878,-0.0875,-0.0887,-0.0901,-0.0905,-0.093,-0.0897,-0.0916,-0.0903,-0.0903,-0.0942,-0.1012,-0.0946,-0.0948,-0.1041,-0.1136,-0.1111,-0.1123,-0.1019,-0.102,-0.1022,-0.1177,0,-0.0803,-0.08,-0.0821,-0.0811,-0.0813,-0.084,-0.0837,-0.0854,-0.0872,-0.0898,-0.0922,-0.0923,-0.091,-0.0913,-0.0951,-0.0988,-0.1041,-0.0973,-0.1098,-0.1102,-0.1107,-0.1133,-0.091,-0.1025,-0.1189,-0.1191,-0.1192,0,-0.0758,-0.0771,-0.0764,-0.0794,-0.0795,-0.0794,-0.0816,-0.0817,-0.0864,-0.0881,-0.0915,-0.0933,-0.0975,-0.0964,-0.1065,-0.1027,-0.1077,-0.112,-0.1127,-0.1098,-0.1098,-0.1047,-0.1041,-0.1212,-0.1211,-0.1209,-0.1208,0,-0.0703,-0.0725,-0.0723,-0.073,-0.0762,-0.0771,-0.0784,-0.0817,-0.0826,-0.0877,-0.09,-0.0959,-0.0986,-0.1062,-0.1126,-0.1105,-0.1261,-0.1243,-0.1282,-0.1282,-0.111,-0.1092,-0.1327,-0.1327,-0.1327,-0.1326,-0.1326,0,-0.0656,-0.0654,-0.0707,-0.0704,-0.0715,-0.0744,-0.0756,-0.0778,-0.082,-0.0841,-0.0887,-0.0923,-0.101,-0.1098,-0.1163,-0.1264,-0.1292,-0.1297,-0.1319,-0.1115,-0.1096,-0.1258,-0.1247,-0.1332,-0.1331,-0.133,-0.1329,0,-0.0588,-0.0621,-0.0625,-0.067,-0.069,-0.0691,-0.0734,-0.0747,-0.0783,-0.0819,-0.0831,-0.0914,-0.1029,-0.1134,-0.1272,-0.13,-0.1403,-0.1431,-0.1197,-0.1187,-0.1395,-0.1384,-0.1504,-0.1504,-0.1504,-0.1505,-0.1505,0,-0.0555,-0.0552,-0.0592,-0.0612,-0.0636,-0.066,-0.0681,-0.0718,-0.0729,-0.0812,-0.0826,-0.0945,-0.1048,-0.1251,-0.1298,-0.1433,-0.1457,-0.1288,-0.1192,-0.1403,-0.1413,-0.1401,-0.1391,-0.0993,-0.0989,-0.0985,-0.0983,0,-0.0497,-0.0506,-0.0511,-0.0558,-0.0587,-0.0614,-0.0646,-0.0649,-0.0697,-0.0753,-0.0851,-0.0954,-0.1108,-0.1144,-0.1273,-0.1297,-0.1245,-0.1228,-0.1511,-0.0977,-0.0932,-0.0938,-0.0942,-0.0954,-0.0957,-0.0959,-0.096,-0.0961,-0.045,-0.0438,-0.0461,-0.0502,-0.0542,-0.0575,-0.0585,-0.064,-0.0685,-0.0816,-0.0896,-0.1047,-0.1072,-0.1222,-0.1169,-0.1057,-0.118,-0.107,-0.1075,-0.1085,-0.0993,-0.095,-0.096,-0.0962,-0.0965,-0.0967,-0.0969,0,-0.0405,-0.0402,-0.0424,-0.0466,-0.0503,-0.0543,-0.0571,-0.0605,-0.0683,-0.0883,-0.1045,-0.1025,-0.1033,-0.1019,-0.0802,-0.0781,-0.0719,-0.0707,-0.0587,-0.0615,-0.064,-0.0521,-0.0366,-0.0365,-0.0364,-0.0363,0,0,-0.0379,-0.0368,-0.038,-0.043,-0.0473,-0.0512,-0.0526,-0.061,-0.0738,-0.0941,-0.1049,-0.1313,-0.1162,-0.0922,-0.0757,-0.0533,-0.0611,-0.0486,-0.0959,-0.0861,-0.0888,-0.0817,-0.0662,0,0,0,0,0]},{"header":{"parameterUnit":"m.s-1","parameterCategory":2,"la1":30.2991,"la2":30.254,"lo1":-89.0895,"lo2":-89.0444,"dy":0.0017,"dx":0.0017,"nx":28,"ny":28,"refTime":"2024-06-22T03:00:00:Z","depth":"2","parameterNumber":3,"parameterNumberName":"V-component_of_CURRENTS"},"data":[0,0,0,0,0,0,0,0,0,0,0,0,0,0,0,0,0,0,0,0,0,0,0,0,0,0,0,0,0,0,0,0,0,0,0,0,0,0,0,0,0,0,0,0,0,0,0,0,0,0,0,0,0,0,0,0,0,0,0.0764,0.0765,0,0.0874,0.0875,0.0877,0.0882,0.088,0.0879,0.0877,0.0915,0.0917,0.0919,0,0,0,0,0,0,0,0,0,0,0,0,0,0.0607,0.061,0.0764,0.0765,0.0766,0.0874,0.0875,0.0877,0.0882,0.088,0.0878,0.0877,0.0914,0.0917,0.0919,0,0,0,0,0,0,0,0,0,0,0,0,0,0.0693,0.061,0.0763,0.078,0.0783,0.0873,0.0875,0.0877,0.0882,0.088,0.0878,0.0876,0.0913,0.0916,0.092,0.0986,0,0,0.0931,0.0932,0,0,0,0,0,0,0,0,0.0688,0.0699,0.0776,0.0779,0.0782,0.086,0.0834,0.0909,0.0883,0.0846,0.0877,0.0875,0.089,0.0895,0.0925,0.0987,0.0989,0.0931,0.0933,0.0935,0.0936,0,0,0,0,0,0,0,0.0682,0.0695,0.0809,0.0778,0.0781,0.0799,0.0809,0.0849,0.0879,0.0849,0.085,0.086,0.0891,0.0921,0.0925,0.0989,0.0931,0.0934,0.0936,0.0938,0.1014,0.1014,0,0,0,0,0,0,0.0666,0.069,0.0806,0.0812,0.0727,0.0803,0.0814,0.0839,0.088,0.0885,0.0862,0.086,0.0916,0.0921,0.0926,0.0906,0.0935,0.0938,0.094,0.1014,0.1014,0.1014,0,0,0,0,0,0,0.0662,0.0676,0.0801,0.075,0.0767,0.0808,0.0836,0.0842,0.0833,0.089,0.0893,0.084,0.0915,0.0921,0.094,0.0911,0.0939,0.0943,0.1014,0.1014,0.1014,0.0929,0,0,0,0,0,0,0.0658,0.0674,0.0675,0.075,0.077,0.0834,0.0838,0.0846,0.0844,0.0842,0.0874,0.0878,0.0914,0.0935,0.0944,0.0916,0.0945,0.1015,0.1014,0.1014,0.0932,0.0926,0.0921,0,0,0,0,0,0.0652,0.067,0.0675,0.0688,0.0774,0.0834,0.0846,0.0868,0.0844,0.0849,0.0867,0.0875,0.0939,0.0938,0.0949,0.0921,0.1015,0.1014,0.1014,0.0934,0.0927,0.0921,0,0,0,0,0,0,0.0607,0.0675,0.0681,0.0719,0.0759,0.0833,0.0834,0.0846,0.0868,0.084,0.0886,0.0893,0.0895,0.0929,0.0926,0.0945,0.0974,0.0976,0.0909,0.0903,0.0898,0.0875,0.0948,0,0,0,0,0,0.0597,0.0622,0.0687,0.0711,0.0722,0.0767,0.0785,0.0796,0.0831,0.0836,0.0857,0.088,0.0914,0.0921,0.0956,0.0974,0.098,0.0961,0.0955,0.095,0.0941,0.0942,0.0934,0.1014,0.1014,0.1014,0,0,0.0586,0.0625,0.0637,0.0701,0.0725,0.0751,0.0771,0.0782,0.0794,0.0837,0.0835,0.0859,0.0916,0.0932,0.0935,0.0948,0.0928,0.095,0.0945,0.0938,0.094,0.0932,0.0925,0.1013,0.1013,0.1013,0,0,0.0579,0.0603,0.0616,0.0644,0.0673,0.071,0.07,0.0743,0.0744,0.0762,0.079,0.0801,0.0845,0.0886,0.0913,0.0903,0.0899,0.0896,0.0847,0.0848,0.084,0.0834,0.081,0.0802,0.0891,0.0891,0.0891,0,0.055,0.0591,0.0628,0.0644,0.0657,0.0682,0.069,0.0715,0.0754,0.0753,0.0739,0.0793,0.083,0.087,0.0858,0.0888,0.0871,0.0864,0.0837,0.0832,0.0827,0.0803,0.0796,0.0887,0.0887,0.0888,0.0888,0,0.0568,0.0579,0.0583,0.0615,0.0636,0.0643,0.0679,0.0675,0.0662,0.0688,0.0688,0.0738,0.0763,0.0776,0.0812,0.08,0.0791,0.0827,0.0845,0.0813,0.0791,0.0785,0.0881,0.0882,0.0884,0.0885,0,0,0.0544,0.0587,0.0579,0.058,0.0612,0.0632,0.0635,0.0663,0.0644,0.0656,0.0641,0.0693,0.0681,0.0712,0.0746,0.0747,0.0693,0.0751,0.0753,0.071,0.0652,0.0704,0.0703,0.0706,0.0705,0.0705,0.0642,0,0.0533,0.0551,0.058,0.058,0.0587,0.0604,0.0609,0.0624,0.0623,0.0612,0.0641,0.0638,0.0671,0.0651,0.0658,0.0687,0.0675,0.0705,0.0705,0.0705,0.0743,0.0698,0.0728,0.068,0.0636,0.0635,0.0634,0,0.0537,0.0547,0.054,0.0553,0.0552,0.0545,0.0534,0.0545,0.0549,0.0537,0.0531,0.0547,0.0549,0.0574,0.0584,0.0587,0.06,0.0626,0.0625,0.07,0.0747,0.0713,0.067,0.0624,0.0625,0.0626,0.0626,0,0.0507,0.052,0.0506,0.051,0.0525,0.0497,0.0497,0.0498,0.0488,0.0467,0.0435,0.0456,0.0428,0.046,0.049,0.0518,0.049,0.0552,0.0616,0.0619,0.0662,0.0672,0.0553,0.0553,0.0554,0.0554,0.0554,0,0.0506,0.0494,0.0472,0.0462,0.0422,0.044,0.0395,0.0393,0.0372,0.0341,0.0368,0.0333,0.0388,0.0387,0.0441,0.0487,0.0446,0.059,0.0607,0.0634,0.0641,0.0621,0.063,0.0551,0.0552,0.0552,0.0553,0,0.0498,0.0486,0.0456,0.0423,0.0403,0.0363,0.0328,0.031,0.0275,0.0227,0.0205,0.0208,0.0174,0.0236,0.0273,0.0412,0.0469,0.0498,0.0511,0.0533,0.061,0.0615,0.0577,0.0578,0.0579,0.058,0.0581,0,0.0518,0.0496,0.0409,0.0364,0.0336,0.0285,0.026,0.0247,0.0222,0.0151,0.0122,0.0064,0.0047,0.0124,0.0302,0.0407,0.0383,0.0549,0.065,0.0591,0.0612,0.0616,0.0619,0.0653,0.0654,0.0655,0.0656,0,0.0548,0.0478,0.044,0.032,0.0259,0.0244,0.0191,0.0155,0.0126,0.0055,-0.0035,-0.006,0.0018,0.0172,0.0345,0.0423,0.0546,0.0579,0.0488,0.0663,0.0665,0.0685,0.0686,0.0666,0.0665,0.0664,0.0663,0.0663,0.0545,0.05,0.0393,0.0286,0.0222,0.0182,0.0156,0.009,0.0015,-0.0108,-0.0113,-0.0094,0.0122,0.0399,0.0451,0.0546,0.06,0.0705,0.0701,0.0696,0.0737,0.0743,0.0763,0.0763,0.0762,0.0762,0.0762,0,0.057,0.0475,0.0381,0.0264,0.0215,0.0159,0.0106,0.0065,-0.0061,-0.0138,-0.0229,0.008,0.0258,0.0385,0.0612,0.0768,0.073,0.0712,0.068,0.0676,0.067,0.0707,0.0726,0.0724,0.0723,0.0722,0,0,0.0573,0.0488,0.0424,0.0292,0.0195,0.0139,0.0098,-0.002,-0.0072,-0.0153,-0.0084,0.0033,0.0351,0.0511,0.0615,0.0656,0.0587,0.0615,0.0657,0.06,0.0589,0.0711,0.0769,0,0,0,0,0]}],[{"header":{"parameterUnit":"m.s-1","parameterCategory":2,"la1":30.2991,"la2":30.254,"lo1":-89.0895,"lo2":-89.0444,"dy":0.0017,"dx":0.0017,"nx":28,"ny":28,"refTime":"2024-06-22T03:00:00:Z","depth":"4","parameterNumber":2,"parameterNumberName":"U-component_of_CURRENTS"},"data":[0,0,0,0,0,0,0,0,0,0,0,0,0,0,0,0,0,0,0,0,0,0,0,0,0,0,0,0,0,0,0,0,0,0,0,0,0,0,0,0,0,0,0,0,0,0,0,0,0,0,0,0,0,0,0,0,0,0,-0.0788,-0.0788,0,-0.0761,-0.0761,-0.076,-0.0762,-0.0762,-0.0763,-0.0764,-0.0733,-0.0732,-0.073,0,0,0,0,0,0,0,0,0,0,0,0,0,-0.0742,-0.0743,-0.0788,-0.0788,-0.0788,-0.0762,-0.0761,-0.076,-0.0762,-0.0762,-0.0763,-0.0764,-0.0734,-0.0732,-0.073,0,0,0,0,0,0,0,0,0,0,0,0,0,-0.074,-0.0743,-0.0788,-0.0788,-0.0788,-0.0762,-0.0761,-0.076,-0.0761,-0.0762,-0.0763,-0.0764,-0.0734,-0.0732,-0.073,-0.0696,0,0,-0.0723,-0.0722,0,0,0,0,0,0,0,0,-0.074,-0.0741,-0.0788,-0.0788,-0.0788,-0.0769,-0.0733,-0.0739,-0.0761,-0.0768,-0.0764,-0.0765,-0.0746,-0.0743,-0.0731,-0.0694,-0.0693,-0.0723,-0.0722,-0.0721,-0.072,0,0,0,0,0,0,0,-0.074,-0.0742,-0.0774,-0.0788,-0.0788,-0.0756,-0.0757,-0.0734,-0.0749,-0.0767,-0.0768,-0.077,-0.0746,-0.0733,-0.073,-0.0693,-0.0723,-0.0721,-0.072,-0.0719,-0.0665,-0.0665,0,0,0,0,0,0,-0.0755,-0.0743,-0.0775,-0.0774,-0.077,-0.0757,-0.0758,-0.0771,-0.0749,-0.0748,-0.077,-0.0771,-0.0736,-0.0733,-0.0729,-0.0735,-0.0721,-0.0719,-0.0718,-0.0665,-0.0665,-0.0664,0,0,0,0,0,0,-0.0754,-0.0758,-0.0776,-0.0759,-0.076,-0.0757,-0.0771,-0.077,-0.0771,-0.0752,-0.075,-0.0774,-0.0737,-0.0732,-0.0713,-0.0732,-0.0718,-0.0716,-0.0665,-0.0665,-0.0665,-0.0716,0,0,0,0,0,0,-0.0753,-0.0758,-0.0774,-0.0761,-0.0762,-0.0766,-0.0771,-0.0769,-0.0772,-0.0773,-0.0754,-0.0752,-0.0737,-0.0716,-0.0711,-0.0729,-0.0714,-0.0665,-0.0665,-0.0665,-0.0715,-0.0718,-0.072,0,0,0,0,0,-0.0752,-0.0768,-0.0775,-0.0779,-0.0783,-0.0766,-0.0762,-0.0761,-0.0771,-0.0766,-0.0755,-0.0753,-0.0712,-0.0714,-0.0708,-0.0726,-0.0665,-0.0665,-0.0665,-0.0713,-0.0717,-0.072,0,0,0,0,0,0,-0.0752,-0.0769,-0.0777,-0.0798,-0.0786,-0.0768,-0.0768,-0.0766,-0.0752,-0.0758,-0.0742,-0.0738,-0.0728,-0.0712,-0.0716,-0.0708,-0.0691,-0.069,-0.0731,-0.0734,-0.0737,-0.0747,-0.0712,0,0,0,0,0,-0.0761,-0.0783,-0.0779,-0.0795,-0.0794,-0.0782,-0.0778,-0.0774,-0.0761,-0.0757,-0.0743,-0.073,-0.0717,-0.0716,-0.0692,-0.0685,-0.0686,-0.0693,-0.0696,-0.0699,-0.0702,-0.0725,-0.0731,-0.0663,-0.0663,-0.0664,0,0,-0.0766,-0.0779,-0.0791,-0.0797,-0.0791,-0.0777,-0.0782,-0.0777,-0.0769,-0.0754,-0.0742,-0.0732,-0.0713,-0.0705,-0.0702,-0.0701,-0.0717,-0.0699,-0.0702,-0.0702,-0.0725,-0.0732,-0.0738,-0.0663,-0.0663,-0.0663,0,0,-0.0769,-0.0797,-0.0805,-0.0796,-0.0792,-0.0783,-0.0785,-0.0769,-0.0771,-0.0751,-0.0747,-0.0752,-0.0717,-0.0723,-0.0719,-0.0721,-0.0724,-0.0716,-0.075,-0.0773,-0.078,-0.0785,-0.0794,-0.08,-0.0728,-0.0728,-0.0728,0,-0.0769,-0.0781,-0.08,-0.0792,-0.0783,-0.0787,-0.0771,-0.077,-0.0749,-0.0759,-0.0751,-0.0741,-0.0728,-0.0746,-0.0748,-0.0732,-0.0738,-0.0744,-0.078,-0.0786,-0.079,-0.0798,-0.0804,-0.0731,-0.0731,-0.073,-0.073,0,-0.0766,-0.0769,-0.077,-0.0768,-0.0763,-0.0748,-0.0749,-0.0751,-0.0756,-0.0761,-0.0776,-0.0765,-0.0768,-0.077,-0.0758,-0.0794,-0.0784,-0.0777,-0.0779,-0.0801,-0.0807,-0.0812,-0.0734,-0.0733,-0.0733,-0.0732,0,0,-0.0761,-0.0767,-0.0763,-0.0751,-0.0746,-0.0733,-0.0742,-0.0747,-0.0767,-0.0769,-0.0795,-0.0794,-0.0815,-0.0812,-0.0816,-0.0841,-0.088,-0.0829,-0.0829,-0.0851,-0.0926,-0.0842,-0.084,-0.0887,-0.0888,-0.0889,-0.0917,0,-0.0739,-0.0723,-0.0735,-0.0704,-0.0686,-0.0701,-0.0704,-0.072,-0.0747,-0.0775,-0.0811,-0.0826,-0.0826,-0.0838,-0.0868,-0.0871,-0.0897,-0.0873,-0.089,-0.089,-0.0823,-0.0844,-0.0893,-0.0921,-0.0922,-0.0923,-0.0924,0,-0.0712,-0.0705,-0.0679,-0.0668,-0.0664,-0.065,-0.0672,-0.0679,-0.0741,-0.077,-0.0826,-0.0853,-0.09,-0.0889,-0.0938,-0.0924,-0.0929,-0.0934,-0.0935,-0.0842,-0.0815,-0.0891,-0.0933,-0.0933,-0.0932,-0.0931,-0.0931,0,-0.0674,-0.0656,-0.0637,-0.0628,-0.0625,-0.0622,-0.0624,-0.0674,-0.07,-0.0776,-0.081,-0.0879,-0.0902,-0.0937,-0.0956,-0.0951,-0.1,-0.0991,-0.0924,-0.0918,-0.0965,-0.0958,-0.1024,-0.1024,-0.1024,-0.1024,-0.1024,0,-0.0629,-0.0608,-0.0614,-0.0595,-0.0566,-0.0586,-0.0583,-0.0616,-0.0685,-0.0711,-0.0803,-0.0828,-0.0915,-0.0956,-0.0972,-0.0962,-0.1016,-0.093,-0.0921,-0.0983,-0.0979,-0.0969,-0.0962,-0.1025,-0.1025,-0.1025,-0.1025,0,-0.0577,-0.0586,-0.0554,-0.055,-0.054,-0.052,-0.0533,-0.0544,-0.0626,-0.0667,-0.0692,-0.0801,-0.0838,-0.0917,-0.0966,-0.0959,-0.097,-0.0952,-0.1014,-0.1008,-0.087,-0.0865,-0.0879,-0.0877,-0.0874,-0.0872,-0.0871,0,-0.0548,-0.0529,-0.051,-0.0484,-0.0472,-0.0449,-0.0429,-0.0494,-0.0506,-0.0621,-0.0622,-0.0713,-0.0766,-0.0791,-0.0866,-0.0915,-0.0906,-0.0918,-0.0895,-0.0866,-0.0857,-0.0856,-0.0854,-0.0867,-0.0867,-0.0866,-0.0865,0,-0.0485,-0.0488,-0.0467,-0.0421,-0.0383,-0.0346,-0.0324,-0.0331,-0.0405,-0.0493,-0.0543,-0.061,-0.0653,-0.0719,-0.0776,-0.0802,-0.0918,-0.0894,-0.0899,-0.0877,-0.0851,-0.0844,-0.0845,-0.0857,-0.0859,-0.0859,-0.086,0,-0.0438,-0.0413,-0.0397,-0.035,-0.0308,-0.0252,-0.0245,-0.0242,-0.0274,-0.0407,-0.0402,-0.0519,-0.0607,-0.0656,-0.0695,-0.0733,-0.0722,-0.0715,-0.0729,-0.0738,-0.0684,-0.0631,-0.0563,0,0,0,0,0,-0.0382,-0.0361,-0.0325,-0.0273,-0.0238,-0.0216,-0.0184,-0.0192,-0.0251,-0.026,-0.0345,-0.0384,-0.048,-0.0536,-0.055,-0.0629,-0.0722,-0.0643,-0.0717,-0.0813,-0.0823,-0.0775,0,0,0,0,0,0,-0.0348,-0.0319,-0.0313,-0.0231,-0.019,-0.014,-0.0116,-0.015,-0.0149,-0.0232,-0.0273,-0.0365,-0.0448,-0.0481,-0.0552,-0.057,-0.0607,-0.0716,-0.0714,-0.0808,-0.0817,-0.0824,-0.0778,0,0,0,0,0]},{"header":{"parameterUnit":"m.s-1","parameterCategory":2,"la1":30.2991,"la2":30.254,"lo1":-89.0895,"lo2":-89.0444,"dy":0.0017,"dx":0.0017,"nx":28,"ny":28,"refTime":"2024-06-22T03:00:00:Z","depth":"4","parameterNumber":3,"parameterNumberName":"V-component_of_CURRENTS"},"data":[0,0,0,0,0,0,0,0,0,0,0,0,0,0,0,0,0,0,0,0,0,0,0,0,0,0,0,0,0,0,0,0,0,0,0,0,0,0,0,0,0,0,0,0,0,0,0,0,0,0,0,0,0,0,0,0,0,0,0.0752,0.0752,0,0.0804,0.0805,0.0805,0.0834,0.0834,0.0834,0.0834,0.0868,0.0868,0.0869,0,0,0,0,0,0,0,0,0,0,0,0,0,0.0652,0.0653,0.0752,0.0752,0.0753,0.0804,0.0805,0.0806,0.0834,0.0834,0.0834,0.0834,0.0867,0.0868,0.0869,0,0,0,0,0,0,0,0,0,0,0,0,0,0.0698,0.0654,0.0751,0.0774,0.0777,0.0804,0.0805,0.0806,0.0833,0.0834,0.0834,0.0834,0.0867,0.0868,0.0869,0.0872,0,0,0.0873,0.0873,0,0,0,0,0,0,0,0,0.0695,0.0701,0.077,0.0773,0.0776,0.0814,0.0782,0.0827,0.0833,0.0811,0.0834,0.0834,0.0848,0.0851,0.0859,0.0873,0.0875,0.0873,0.0873,0.0874,0.0874,0,0,0,0,0,0,0,0.0692,0.0699,0.0771,0.0771,0.0774,0.0774,0.078,0.0791,0.0826,0.0813,0.0815,0.0823,0.085,0.0858,0.086,0.0875,0.0873,0.0874,0.0874,0.0875,0.0883,0.0883,0,0,0,0,0,0,0.0689,0.0696,0.077,0.0773,0.0736,0.0775,0.0783,0.08,0.0827,0.0832,0.0822,0.0824,0.0856,0.0859,0.0861,0.0855,0.0874,0.0875,0.0876,0.0884,0.0883,0.0883,0,0,0,0,0,0,0.0687,0.0695,0.0768,0.0736,0.0745,0.0777,0.0796,0.0801,0.0818,0.0835,0.0839,0.0835,0.0856,0.086,0.0868,0.0856,0.0876,0.0877,0.0884,0.0884,0.0883,0.0848,0,0,0,0,0,0,0.0684,0.0694,0.0709,0.0736,0.0747,0.0783,0.0796,0.0802,0.0822,0.0825,0.0847,0.085,0.0857,0.0866,0.0869,0.0858,0.0877,0.0885,0.0884,0.0883,0.085,0.0846,0.0843,0,0,0,0,0,0.068,0.07,0.071,0.0719,0.0766,0.0783,0.0788,0.081,0.0823,0.0827,0.0839,0.0849,0.0862,0.0867,0.087,0.086,0.0885,0.0884,0.0883,0.0851,0.0847,0.0843,0,0,0,0,0,0,0.0668,0.0706,0.0717,0.0749,0.0763,0.0788,0.0802,0.0814,0.0828,0.0832,0.0847,0.0851,0.085,0.0862,0.0867,0.0859,0.0874,0.0874,0.0849,0.0845,0.0842,0.0828,0.0878,0,0,0,0,0,0.0672,0.0696,0.0722,0.0747,0.0755,0.0779,0.0791,0.0802,0.0818,0.0826,0.0839,0.0849,0.0848,0.0853,0.0857,0.0859,0.0883,0.0853,0.085,0.0847,0.0838,0.0871,0.087,0.0879,0.0879,0.0879,0,0,0.0674,0.0698,0.0713,0.0745,0.0761,0.0759,0.0787,0.0804,0.0794,0.0826,0.0824,0.0839,0.0845,0.084,0.0841,0.0851,0.0859,0.0846,0.0843,0.0836,0.087,0.0869,0.0868,0.0879,0.0879,0.0879,0,0,0.0678,0.0712,0.0724,0.0731,0.0752,0.0758,0.0763,0.0785,0.079,0.0791,0.0803,0.0814,0.0822,0.0821,0.0821,0.0804,0.0839,0.0807,0.0783,0.0814,0.0814,0.0814,0.0853,0.0857,0.0808,0.0808,0.0808,0,0.0677,0.0695,0.0728,0.0729,0.0725,0.0754,0.0742,0.0748,0.0767,0.0762,0.0783,0.0794,0.0807,0.0792,0.0784,0.0796,0.0826,0.0797,0.0811,0.0811,0.0811,0.0852,0.0856,0.0806,0.0806,0.0807,0.0807,0,0.0676,0.0686,0.0693,0.0697,0.0696,0.0696,0.0697,0.0695,0.0707,0.0714,0.0715,0.0742,0.0749,0.0754,0.0763,0.0765,0.079,0.0802,0.0821,0.0808,0.0852,0.0857,0.0804,0.0804,0.0805,0.0805,0,0,0.0684,0.069,0.0692,0.0675,0.0676,0.0671,0.0646,0.0631,0.061,0.0644,0.063,0.0646,0.0681,0.0683,0.0708,0.0735,0.077,0.0769,0.0772,0.0809,0.0852,0.0798,0.08,0.0792,0.0792,0.0793,0.0885,0,0.0669,0.066,0.0661,0.0628,0.0616,0.0609,0.0573,0.0561,0.0564,0.0559,0.0599,0.0602,0.0647,0.0657,0.0693,0.0747,0.0781,0.0745,0.0858,0.0861,0.0815,0.0802,0.0794,0.0889,0.089,0.0891,0.0892,0,0.0661,0.0653,0.063,0.0577,0.0568,0.0549,0.0496,0.0473,0.0466,0.0468,0.0498,0.0531,0.0576,0.0618,0.0723,0.0702,0.0771,0.0821,0.0826,0.0788,0.0816,0.0903,0.0902,0.0901,0.0901,0.09,0.0899,0,0.0649,0.0621,0.06,0.0589,0.0543,0.0518,0.0491,0.046,0.0442,0.0434,0.0427,0.0485,0.0531,0.0616,0.0737,0.0731,0.0861,0.0866,0.0884,0.0883,0.0922,0.0921,0.0935,0.0935,0.0935,0.0934,0.0934,0,0.0627,0.0608,0.0599,0.0587,0.054,0.0509,0.0465,0.0432,0.0413,0.0386,0.0404,0.0406,0.0536,0.0625,0.0724,0.0827,0.0863,0.0871,0.0894,0.0907,0.0903,0.0927,0.0925,0.0938,0.0937,0.0936,0.0936,0,0.0619,0.0617,0.0593,0.0555,0.0543,0.0517,0.0474,0.0441,0.0405,0.0376,0.0376,0.0393,0.0484,0.0616,0.0766,0.0808,0.0908,0.094,0.0955,0.098,0.0911,0.0906,0.0941,0.094,0.0939,0.0938,0.0937,0,0.0613,0.0607,0.0591,0.0584,0.0576,0.0542,0.0512,0.0463,0.0422,0.036,0.0339,0.0405,0.0432,0.0607,0.0733,0.0907,0.0924,0.0958,0.0909,0.0888,0.0908,0.0905,0.0902,0.0935,0.0935,0.0935,0.0934,0,0.0597,0.0611,0.0595,0.0593,0.0577,0.0543,0.0493,0.0453,0.0375,0.0357,0.0306,0.0352,0.0448,0.0581,0.0729,0.0846,0.0914,0.0947,0.0949,0.0903,0.0882,0.0902,0.09,0.093,0.0931,0.0931,0.0932,0,0.0596,0.0593,0.0595,0.0583,0.0576,0.0533,0.0498,0.0432,0.0389,0.0294,0.0296,0.0359,0.0421,0.055,0.0681,0.0793,0.0794,0.0786,0.0797,0.0802,0.072,0.067,0.0665,0,0,0,0,0,0.0589,0.0587,0.0578,0.0561,0.056,0.0556,0.0474,0.0428,0.0345,0.0308,0.0293,0.0366,0.0482,0.053,0.0636,0.0667,0.083,0.0785,0.0831,0.0909,0.0913,0.0833,0,0,0,0,0,0,0.0581,0.0584,0.0576,0.0559,0.0553,0.0533,0.0485,0.0424,0.0378,0.0315,0.0397,0.0379,0.0533,0.0473,0.0652,0.0677,0.0703,0.0847,0.0847,0.0906,0.091,0.0914,0.0833,0,0,0,0,0]}]]